Main page
METAR-TAF:

METAR-TAF

Airports :

Sania Ramel Airport

Tétouan, Morocco

latitude: 35-35N, longitude: 005-20W, elevation: 10 m

Current weather observation

The report was made 26 minutes ago, at 11:00 UTC
Wind 6 kt from the East/Northeast
Temperature 25°C
Humidity 61%
Pressure 1016 hPa
Visibility 10 km or more
no clouds below 1500 m and no cumulonimbus

METAR: GMTN 161100Z 06006KT CAVOK 25/17 Q1016 NOSIG

Time: 12:26 (11:26 UTC)


TAF: missing

Weather observations and forecasts of more than 4000 airports (METAR and TAF reports).

The available stations are represented by yellow and red dots on the map.

Hover mouse over dot to see the name of the station.

Then click to see weather observations and forecasts.

To change the map : click on the green buttons with a black cross to zoom in, on the green button with a dash to zoom out, or on the green arrows for adjacent maps.


METAR-TAF: